| time (UTC) | temp F | wind direction | speed MPH | gust MPH | rain 1hr in | rain 24hr in | rain mn in | humidity % | barometer mb |
| 20260906231635 | 76 | 245 | 0.0 | 0.0 | 0.00 | 0.00 | 0.00 | 61 | 1018.2 |
| 20260906231130 | 76 | 245 | 0.0 | 0.0 | 0.00 | 0.00 | 0.00 | 61 | 1018.3 |
| 20260906230629 | 76 | 245 | 0.0 | 0.0 | 0.00 | 0.00 | 0.00 | 61 | 1018.5 |
| 20260906230124 | 76 | 245 | 0.0 | 0.0 | 0.00 | 0.00 | 0.00 | 61 | 1018.4 |
| 20260906225623 | 76 | 245 | 0.0 | 0.0 | 0.00 | 0.00 | 0.00 | 61 | 1018.5 |
| 20260906225121 | 76 | 245 | 0.0 | 0.0 | 0.00 | 0.00 | 0.00 | 61 | 1018.6 |
| 20260906224620 | 76 | 245 | 0.0 | 0.0 | 0.00 | 0.00 | 0.00 | 61 | 1018.4 |
| 20260906224117 | 76 | 246 | 0.0 | 0.0 | 0.00 | 0.00 | 0.00 | 60 | 1018.5 |
| 20260906223613 | 77 | 251 | 0.0 | 0.0 | 0.00 | 0.00 | 0.00 | 58 | 1018.3 |
| 20260906223112 | 77 | 251 | 0.0 | 0.0 | 0.00 | 0.00 | 0.00 | 56 | 1018.2 |
| 20260906222611 | 77 | 251 | 0.0 | 0.0 | 0.00 | 0.00 | 0.00 | 59 | 1018.3 |
| 20260906222109 | 77 | 85 | 0.0 | 2.0 | 0.00 | 0.00 | 0.00 | 56 | 1018.1 |
| 20260906221608 | 77 | 207 | 0.0 | 0.0 | 0.00 | 0.00 | 0.00 | 60 | 1018.1 |
| 20260906221103 | 77 | 162 | 0.0 | 2.0 | 0.00 | 0.00 | 0.00 | 58 | 1018.0 |
| 20260906220558 | 77 | 251 | 0.0 | 0.0 | 0.00 | 0.00 | 0.00 | 58 | 1018.1 |
| 20260906220054 | 78 | 314 | 0.0 | 0.0 | 0.00 | 0.00 | 0.00 | 58 | 1018.0 |
| 20260906215552 | 78 | 343 | 0.0 | 0.0 | 0.00 | 0.00 | 0.00 | 57 | 1017.8 |
| 20260906215050 | 78 | 127 | 0.0 | 2.0 | 0.00 | 0.00 | 0.00 | 54 | 1018.1 |
| 20260906214549 | 78 | 7 | 0.0 | 2.0 | 0.00 | 0.00 | 0.00 | 55 | 1017.9 |
| 20260906214045 | 78 | 149 | 0.0 | 0.0 | 0.00 | 0.00 | 0.00 | 57 | 1017.9 |
| 20260906213544 | 78 | 271 | 0.0 | 1.0 | 0.00 | 0.00 | 0.00 | 57 | 1017.8 |
| 20260906213039 | 78 | 236 | 0.0 | 1.0 | 0.00 | 0.00 | 0.00 | 55 | 1017.6 |
| 20260906212531 | 78 | 238 | 0.0 | 0.0 | 0.00 | 0.00 | 0.00 | 58 | 1018.1 |
| 20260906212027 | 78 | 145 | 0.0 | 1.0 | 0.00 | 0.00 | 0.00 | 54 | 1018.1 |
| 20260906211522 | 79 | 162 | 0.0 | 1.0 | 0.00 | 0.00 | 0.00 | 54 | 1018.2 |
| 20260906211017 | 79 | 140 | 0.0 | 1.0 | 0.00 | 0.00 | 0.00 | 55 | 1018.0 |
| 20260906210513 | 79 | 318 | 0.0 | 0.0 | 0.00 | 0.00 | 0.00 | 54 | 1018.3 |
| 20260906210012 | 80 | 226 | 0.0 | 2.0 | 0.00 | 0.00 | 0.00 | 54 | 1018.0 |
| 20260906205508 | 80 | 74 | 0.0 | 2.0 | 0.00 | 0.00 | 0.00 | 52 | 1018.2 |
| 20260906205004 | 80 | 331 | 0.0 | 2.0 | 0.00 | 0.00 | 0.00 | 55 | 1018.1 |
| 20260906204503 | 79 | 161 | 1.0 | 2.0 | 0.00 | 0.00 | 0.00 | 54 | 1018.0 |
| 20260906204003 | 78 | 150 | 0.0 | 1.0 | 0.00 | 0.00 | 0.00 | 56 | 1018.0 |
| 20260906203458 | 79 | 251 | 0.0 | 1.0 | 0.00 | 0.00 | 0.00 | 59 | 1018.2 |
| 20260906202955 | 79 | 251 | 0.0 | 1.0 | 0.00 | 0.00 | 0.00 | 57 | 1017.9 |
| 20260906202448 | 80 | 110 | 0.0 | 1.0 | 0.00 | 0.00 | 0.00 | 53 | 1018.1 |
| 20260906201943 | 81 | 290 | 0.0 | 1.0 | 0.00 | 0.00 | 0.00 | 54 | 1018.1 |
| 20260906201438 | 81 | 64 | 0.0 | 1.0 | 0.00 | 0.00 | 0.00 | 51 | 1018.2 |
| 20260906200932 | 81 | 238 | 0.0 | 1.0 | 0.00 | 0.00 | 0.00 | 57 | 1018.1 |
| 20260906200429 | 79 | 238 | 0.0 | 1.0 | 0.00 | 0.00 | 0.00 | 55 | 1017.8 |
| 20260906195929 | 79 | 150 | 0.0 | 2.0 | 0.00 | 0.00 | 0.00 | 57 | 1018.1 |
| 20260906195426 | 78 | 263 | 0.0 | 0.0 | 0.00 | 0.00 | 0.00 | 58 | 1018.0 |
| 20260906194922 | 79 | 109 | 0.0 | 1.0 | 0.00 | 0.00 | 0.00 | 58 | 1018.2 |
| 20260906194417 | 79 | 312 | 1.0 | 2.0 | 0.00 | 0.00 | 0.00 | 56 | 1017.9 |
| 20260906193912 | 80 | 145 | 0.0 | 0.0 | 0.00 | 0.00 | 0.00 | 56 | 1018.0 |
| 20260906193407 | 81 | 120 | 0.0 | 3.0 | 0.00 | 0.00 | 0.00 | 51 | 1018.1 |
| 20260906192902 | 81 | 308 | 0.0 | 2.0 | 0.00 | 0.00 | 0.00 | 54 | 1018.1 |
| 20260906192401 | 80 | 171 | 0.0 | 1.0 | 0.00 | 0.00 | 0.00 | 58 | 1018.2 |
| 20260906191856 | 81 | 83 | 0.0 | 1.0 | 0.00 | 0.00 | 0.00 | 52 | 1018.1 |
| 20260906191351 | 81 | 166 | 0.0 | 1.0 | 0.00 | 0.00 | 0.00 | 57 | 1018.2 |
| 20260906190850 | 81 | 286 | 1.0 | 1.0 | 0.00 | 0.00 | 0.00 | 53 | 1018.0 |
| 20260906190349 | 81 | 331 | 0.0 | 3.0 | 0.00 | 0.00 | 0.00 | 54 | 1018.3 |
| 20260906185844 | 83 | 105 | 2.0 | 4.0 | 0.00 | 0.00 | 0.00 | 48 | 1018.2 |
| 20260906185343 | 83 | 297 | 1.0 | 2.0 | 0.00 | 0.00 | 0.00 | 47 | 1018.4 |
| 20260906184843 | 81 | 223 | 0.0 | 0.0 | 0.00 | 0.00 | 0.00 | 60 | 1018.1 |
| 20260906184338 | 79 | 314 | 0.0 | 0.0 | 0.00 | 0.00 | 0.00 | 54 | 1018.3 |
| 20260906183834 | 79 | 185 | 0.0 | 2.0 | 0.00 | 0.00 | 0.00 | 56 | 1018.6 |
| 20260906183330 | 79 | 320 | 2.0 | 2.0 | 0.00 | 0.00 | 0.00 | 52 | 1018.6 |
| 20260906182829 | 79 | 276 | 0.0 | 1.0 | 0.00 | 0.00 | 0.00 | 57 | 1018.6 |
| 20260906182325 | 79 | 70 | 1.0 | 1.0 | 0.00 | 0.00 | 0.00 | 54 | 1018.3 |
| 20260906181820 | 79 | 252 | 2.0 | 2.0 | 0.00 | 0.00 | 0.00 | 59 | 1018.4 |
| 20260906181316 | 80 | 251 | 2.0 | 3.0 | 0.00 | 0.00 | 0.00 | 54 | 1018.4 |
| 20260906180812 | 81 | 229 | 0.0 | 1.0 | 0.00 | 0.00 | 0.00 | 56 | 1018.8 |
| 20260906180306 | 80 | 203 | 0.0 | 2.0 | 0.00 | 0.00 | 0.00 | 59 | 1018.7 |
| 20260906175804 | 81 | 60 | 1.0 | 2.0 | 0.00 | 0.00 | 0.00 | 50 | 1018.7 |
| 20260906175300 | 81 | 305 | 2.0 | 6.0 | 0.00 | 0.00 | 0.00 | 48 | 1018.5 |
| 20260906174758 | 82 | 10 | 1.0 | 3.0 | 0.00 | 0.00 | 0.00 | 49 | 1018.3 |
| 20260906174257 | 82 | 52 | 1.0 | 3.0 | 0.00 | 0.00 | 0.00 | 47 | 1018.7 |
| 20260906173752 | 81 | 165 | 0.0 | 1.0 | 0.00 | 0.00 | 0.00 | 58 | 1018.7 |
| 20260906173248 | 81 | 278 | 0.0 | 2.0 | 0.00 | 0.00 | 0.00 | 55 | 1018.7 |
| 20260906172747 | 81 | 112 | 2.0 | 2.0 | 0.00 | 0.00 | 0.00 | 55 | 1019.1 |
| 20260906172243 | 81 | 281 | 1.0 | 2.0 | 0.00 | 0.00 | 0.00 | 53 | 1018.9 |
| 20260906171738 | 80 | 331 | 2.0 | 2.0 | 0.00 | 0.00 | 0.00 | 56 | 1018.7 |
| 20260906171234 | 79 | 263 | 0.0 | 2.0 | 0.00 | 0.00 | 0.00 | 60 | 1018.7 |
| 20260906170729 | 78 | 308 | 2.0 | 2.0 | 0.00 | 0.00 | 0.00 | 54 | 1018.8 |
| 20260906170225 | 77 | 135 | 0.0 | 2.0 | 0.00 | 0.00 | 0.00 | 56 | 1018.9 |
| 20260906165721 | 77 | 312 | 2.0 | 2.0 | 0.00 | 0.00 | 0.00 | 61 | 1019.1 |
| 20260906165215 | 77 | 263 | 1.0 | 2.0 | 0.00 | 0.00 | 0.00 | 63 | 1018.6 |
| 20260906164714 | 77 | 347 | 0.0 | 2.0 | 0.00 | 0.00 | 0.00 | 60 | 1018.7 |
| 20260906164210 | 76 | 262 | 1.0 | 2.0 | 0.00 | 0.00 | 0.00 | 62 | 1019.2 |
| 20260906163705 | 76 | 229 | 0.0 | 0.0 | 0.00 | 0.00 | 0.00 | 69 | 1019.0 |
| 20260906163201 | 75 | 125 | 0.0 | 0.0 | 0.00 | 0.00 | 0.00 | 63 | 1019.1 |
| 20260906162658 | 75 | 290 | 0.0 | 2.0 | 0.00 | 0.00 | 0.00 | 64 | 1019.1 |
| 20260906162158 | 76 | 238 | 0.0 | 1.0 | 0.00 | 0.00 | 0.00 | 64 | 1019.4 |
| 20260906161653 | 76 | 263 | 0.0 | 0.0 | 0.00 | 0.00 | 0.00 | 68 | 1019.2 |
| 20260906161151 | 76 | 263 | 0.0 | 0.0 | 0.00 | 0.00 | 0.00 | 65 | 1019.5 |
| 20260906160651 | 75 | 319 | 0.0 | 1.0 | 0.00 | 0.00 | 0.00 | 69 | 1019.4 |
| 20260906160150 | 75 | 92 | 1.0 | 1.0 | 0.00 | 0.00 | 0.00 | 65 | 1019.5 |
| 20260906155647 | 75 | 251 | 0.0 | 2.0 | 0.00 | 0.00 | 0.00 | 69 | 1019.5 |
| 20260906155143 | 75 | 131 | 0.0 | 1.0 | 0.00 | 0.00 | 0.00 | 62 | 1019.5 |
| 20260906154638 | 75 | 312 | 0.0 | 2.0 | 0.00 | 0.00 | 0.00 | 62 | 1019.5 |
| 20260906154133 | 75 | 344 | 2.0 | 3.0 | 0.00 | 0.00 | 0.00 | 65 | 1019.3 |
| 20260906153632 | 75 | 344 | 2.0 | 3.0 | 0.00 | 0.00 | 0.00 | 65 | 1019.4 |
| 20260906153127 | 74 | 336 | 0.0 | 0.0 | 0.00 | 0.00 | 0.00 | 66 | 1019.5 |
| 20260906152626 | 74 | 336 | 0.0 | 0.0 | 0.00 | 0.00 | 0.00 | 66 | 1019.3 |
| 20260906152120 | 74 | 282 | 1.0 | 1.0 | 0.00 | 0.00 | 0.00 | 67 | 1019.1 |
| 20260906151615 | 74 | 282 | 1.0 | 1.0 | 0.00 | 0.00 | 0.00 | 67 | 1019.4 |
| 20260906151111 | 74 | 282 | 1.0 | 1.0 | 0.00 | 0.00 | 0.00 | 67 | 1019.3 |
| 20260906150607 | 73 | 147 | 1.0 | 2.0 | 0.00 | 0.00 | 0.00 | 68 | 1019.4 |
| 20260906145600 | 73 | 321 | 0.0 | 0.0 | 0.00 | 0.00 | 0.00 | 69 | 1019.2 |
| 20260906145055 | 73 | 321 | 0.0 | 0.0 | 0.00 | 0.00 | 0.00 | 69 | 1019.2 |
| 20260906144549 | 73 | 194 | 2.0 | 2.0 | 0.00 | 0.00 | 0.00 | 75 | 1019.0 |
| 20260906144045 | 72 | 163 | 0.0 | 1.0 | 0.00 | 0.00 | 0.00 | 73 | 1019.0 |
| 20260906143540 | 72 | 163 | 0.0 | 1.0 | 0.00 | 0.00 | 0.00 | 73 | 1019.2 |
| 20260906143037 | 72 | 168 | 0.0 | 1.0 | 0.00 | 0.00 | 0.00 | 72 | 1019.1 |
| 20260906142536 | 72 | 163 | 1.0 | 2.0 | 0.00 | 0.00 | 0.00 | 74 | 1019.0 |
| 20260906142032 | 72 | 110 | 0.0 | 1.0 | 0.00 | 0.00 | 0.00 | 71 | 1019.0 |
| 20260906141531 | 72 | 73 | 0.0 | 0.0 | 0.00 | 0.00 | 0.00 | 72 | 1018.9 |
| 20260906141026 | 72 | 140 | 0.0 | 1.0 | 0.00 | 0.00 | 0.00 | 74 | 1019.0 |
| 20260906140520 | 72 | 236 | 0.0 | 1.0 | 0.00 | 0.00 | 0.00 | 74 | 1018.9 |
| 20260906140020 | 72 | 163 | 0.0 | 2.0 | 0.00 | 0.00 | 0.00 | 74 | 1018.7 |
| 20260906135517 | 71 | 350 | 0.0 | 2.0 | 0.00 | 0.00 | 0.00 | 73 | 1018.7 |
| 20260906135013 | 72 | 113 | 1.0 | 2.0 | 0.00 | 0.00 | 0.00 | 73 | 1018.8 |
| 20260906134509 | 72 | 328 | 0.0 | 2.0 | 0.00 | 0.00 | 0.00 | 73 | 1018.7 |
| 20260906134009 | 72 | 317 | 0.0 | 2.0 | 0.00 | 0.00 | 0.00 | 72 | 1018.6 |
| 20260906133505 | 72 | 100 | 2.0 | 2.0 | 0.00 | 0.00 | 0.00 | 74 | 1018.7 |
| 20260906132959 | 71 | 2 | 2.0 | 2.0 | 0.00 | 0.00 | 0.00 | 76 | 1018.7 |
| 20260906132454 | 71 | 190 | 0.0 | 1.0 | 0.00 | 0.00 | 0.00 | 77 | 1018.6 |
| 20260906131950 | 71 | 347 | 0.0 | 2.0 | 0.00 | 0.00 | 0.00 | 78 | 1019.0 |
| 20260906131445 | 71 | 261 | 0.0 | 2.0 | 0.00 | 0.00 | 0.00 | 76 | 1018.7 |
| 20260906130941 | 71 | 257 | 0.0 | 2.0 | 0.00 | 0.00 | 0.00 | 78 | 1018.8 |
| 20260906130440 | 71 | 214 | 0.0 | 3.0 | 0.00 | 0.00 | 0.00 | 76 | 1018.5 |
| 20260906125935 | 71 | 155 | 0.0 | 2.0 | 0.00 | 0.00 | 0.00 | 75 | 1018.5 |
| 20260906125431 | 72 | 304 | 1.0 | 2.0 | 0.00 | 0.00 | 0.00 | 74 | 1018.5 |
| 20260906124926 | 72 | 321 | 2.0 | 3.0 | 0.00 | 0.00 | 0.00 | 72 | 1018.5 |
| 20260906124422 | 73 | 154 | 2.0 | 3.0 | 0.00 | 0.00 | 0.00 | 74 | 1018.5 |
| 20260906123922 | 71 | 129 | 1.0 | 3.0 | 0.00 | 0.00 | 0.00 | 79 | 1018.4 |
| 20260906123421 | 70 | 24 | 0.0 | 4.0 | 0.00 | 0.00 | 0.00 | 80 | 1018.5 |
| 20260906122916 | 70 | 132 | 1.0 | 2.0 | 0.00 | 0.00 | 0.00 | 82 | 1018.3 |
| 20260906122416 | 70 | 273 | 2.0 | 3.0 | 0.00 | 0.00 | 0.00 | 81 | 1018.3 |
| 20260906121913 | 70 | 192 | 1.0 | 3.0 | 0.00 | 0.00 | 0.00 | 82 | 1018.3 |
| 20260906121408 | 70 | 251 | 0.0 | 1.0 | 0.00 | 0.00 | 0.00 | 84 | 1018.2 |
| 20260906120905 | 70 | 267 | 0.0 | 0.0 | 0.00 | 0.00 | 0.00 | 83 | 1018.3 |
| 20260906120400 | 70 | 122 | 1.0 | 2.0 | 0.00 | 0.00 | 0.00 | 82 | 1018.2 |
| 20260906115856 | 70 | 332 | 3.0 | 3.0 | 0.00 | 0.00 | 0.00 | 82 | 1017.9 |
| 20260906115351 | 70 | 207 | 0.0 | 1.0 | 0.00 | 0.00 | 0.00 | 83 | 1017.9 |
| 20260906114850 | 70 | 66 | 0.0 | 0.0 | 0.00 | 0.00 | 0.00 | 83 | 1017.9 |
| 20260906114346 | 70 | 238 | 1.0 | 1.0 | 0.00 | 0.00 | 0.00 | 84 | 1017.7 |
| 20260906113841 | 70 | 173 | 1.0 | 3.0 | 0.00 | 0.00 | 0.00 | 84 | 1017.7 |
| 20260906113340 | 70 | 22 | 0.0 | 1.0 | 0.00 | 0.00 | 0.00 | 85 | 1017.6 |
| 20260906112836 | 70 | 325 | 0.0 | 0.0 | 0.00 | 0.00 | 0.00 | 87 | 1017.6 |
| 20260906112332 | 70 | 303 | 0.0 | 2.0 | 0.00 | 0.00 | 0.00 | 87 | 1017.3 |
| 20260906111832 | 70 | 290 | 0.0 | 1.0 | 0.00 | 0.00 | 0.00 | 88 | 1017.5 |
| 20260906111331 | 70 | 240 | 2.0 | 2.0 | 0.00 | 0.00 | 0.00 | 89 | 1017.2 |
| 20260906110826 | 70 | 134 | 0.0 | 1.0 | 0.00 | 0.00 | 0.00 | 89 | 1017.4 |
| 20260906110322 | 70 | 274 | 0.0 | 1.0 | 0.00 | 0.00 | 0.00 | 90 | 1017.1 |
| 20260906105821 | 70 | 290 | 0.0 | 1.0 | 0.00 | 0.00 | 0.00 | 90 | 1017.3 |
| 20260906105317 | 70 | 135 | 0.0 | 0.0 | 0.00 | 0.00 | 0.00 | 90 | 1017.6 |
| 20260906104813 | 70 | 288 | 0.0 | 1.0 | 0.00 | 0.00 | 0.00 | 90 | 1017.3 |
| 20260906104311 | 70 | 330 | 0.0 | 0.0 | 0.00 | 0.00 | 0.00 | 90 | 1017.1 |
| 20260906103810 | 70 | 223 | 0.0 | 2.0 | 0.00 | 0.00 | 0.00 | 90 | 1017.2 |
| 20260906103309 | 71 | 359 | 0.0 | 2.0 | 0.00 | 0.00 | 0.00 | 90 | 1016.9 |
| 20260906102805 | 70 | 149 | 0.0 | 0.0 | 0.00 | 0.00 | 0.00 | 90 | 1016.7 |
| 20260906102306 | 71 | 123 | 0.0 | 1.0 | 0.00 | 0.00 | 0.00 | 91 | 1016.4 |
| 20260906101759 | 71 | 201 | 0.0 | 1.0 | 0.00 | 0.00 | 0.00 | 91 | 1016.8 |
| 20260906101254 | 71 | 201 | 0.0 | 0.0 | 0.00 | 0.00 | 0.00 | 91 | 1016.7 |
| 20260906100749 | 71 | 6 | 0.0 | 1.0 | 0.00 | 0.00 | 0.00 | 91 | 1016.4 |
| 20260906100248 | 71 | 214 | 0.0 | 0.0 | 0.00 | 0.00 | 0.00 | 91 | 1016.5 |
| 20260906095744 | 71 | 275 | 0.0 | 1.0 | 0.00 | 0.00 | 0.00 | 92 | 1016.4 |
| 20260906095239 | 71 | 192 | 0.0 | 1.0 | 0.00 | 0.00 | 0.00 | 92 | 1016.3 |
| 20260906094738 | 71 | 304 | 0.0 | 1.0 | 0.00 | 0.00 | 0.00 | 93 | 1016.4 |
| 20260906094233 | 71 | 251 | 0.0 | 0.0 | 0.00 | 0.00 | 0.00 | 93 | 1016.4 |
| 20260906093730 | 71 | 318 | 1.0 | 2.0 | 0.00 | 0.00 | 0.00 | 93 | 1016.2 |
| 20260906093219 | 71 | 290 | 0.0 | 2.0 | 0.00 | 0.00 | 0.00 | 93 | 1016.1 |
| 20260906092715 | 71 | 145 | 0.0 | 0.0 | 0.00 | 0.00 | 0.00 | 93 | 1016.4 |
| 20260906092214 | 71 | 4 | 0.0 | 1.0 | 0.00 | 0.00 | 0.00 | 93 | 1016.1 |
| 20260906091710 | 71 | 249 | 0.0 | 0.0 | 0.00 | 0.00 | 0.00 | 93 | 1016.1 |
| 20260906091207 | 71 | 346 | 0.0 | 0.0 | 0.00 | 0.00 | 0.00 | 93 | 1015.8 |
| 20260906090702 | 71 | 220 | 0.0 | 1.0 | 0.00 | 0.00 | 0.00 | 93 | 1016.0 |
| 20260906090201 | 71 | 205 | 0.0 | 1.0 | 0.00 | 0.00 | 0.00 | 93 | 1016.1 |
| 20260906085701 | 71 | 50 | 0.0 | 1.0 | 0.00 | 0.00 | 0.00 | 93 | 1015.8 |
| 20260906085200 | 71 | 138 | 0.0 | 2.0 | 0.00 | 0.00 | 0.00 | 93 | 1015.9 |
| 20260906084655 | 71 | 236 | 0.0 | 1.0 | 0.00 | 0.00 | 0.00 | 93 | 1015.8 |
| 20260906084154 | 71 | 227 | 0.0 | 1.0 | 0.00 | 0.00 | 0.00 | 93 | 1015.8 |
| 20260906083649 | 71 | 263 | 0.0 | 0.0 | 0.00 | 0.00 | 0.00 | 93 | 1015.8 |
| 20260906083145 | 71 | 90 | 1.0 | 1.0 | 0.00 | 0.00 | 0.00 | 93 | 1015.9 |
| 20260906082640 | 71 | 318 | 0.0 | 1.0 | 0.00 | 0.00 | 0.00 | 93 | 1015.7 |
| 20260906082135 | 71 | 194 | 0.0 | 0.0 | 0.00 | 0.00 | 0.00 | 93 | 1015.8 |
| 20260906081631 | 71 | 138 | 0.0 | 1.0 | 0.00 | 0.00 | 0.00 | 93 | 1016.0 |
| 20260906081126 | 71 | 238 | 0.0 | 0.0 | 0.00 | 0.00 | 0.00 | 93 | 1015.9 |
| 20260906080623 | 71 | 320 | 0.0 | 1.0 | 0.00 | 0.00 | 0.00 | 93 | 1015.8 |
| 20260906080119 | 71 | 189 | 0.0 | 0.0 | 0.00 | 0.00 | 0.00 | 93 | 1015.6 |
| 20260906075613 | 71 | 233 | 0.0 | 1.0 | 0.00 | 0.00 | 0.00 | 93 | 1015.7 |
| 20260906075108 | 71 | 216 | 0.0 | 1.0 | 0.00 | 0.00 | 0.00 | 93 | 1015.5 |
| 20260906074603 | 71 | 216 | 0.0 | 1.0 | 0.00 | 0.00 | 0.00 | 93 | 1015.6 |
| 20260906074102 | 71 | 60 | 0.0 | 2.0 | 0.00 | 0.00 | 0.00 | 93 | 1015.6 |
| 20260906073557 | 71 | 258 | 0.0 | 0.0 | 0.00 | 0.00 | 0.00 | 93 | 1015.8 |
| 20260906073052 | 71 | 330 | 0.0 | 0.0 | 0.00 | 0.00 | 0.00 | 93 | 1015.4 |
| 20260906072552 | 71 | 330 | 0.0 | 0.0 | 0.00 | 0.00 | 0.00 | 93 | 1015.6 |
| 20260906072049 | 71 | 330 | 0.0 | 0.0 | 0.00 | 0.00 | 0.00 | 93 | 1015.7 |
| 20260906071544 | 71 | 229 | 0.0 | 0.0 | 0.00 | 0.00 | 0.00 | 93 | 1015.5 |
| 20260906071039 | 72 | 251 | 0.0 | 0.0 | 0.00 | 0.00 | 0.00 | 93 | 1015.5 |
| 20260906070536 | 72 | 87 | 0.0 | 0.0 | 0.00 | 0.00 | 0.00 | 93 | 1015.5 |
| 20260906070031 | 72 | 83 | 0.0 | 1.0 | 0.00 | 0.00 | 0.00 | 93 | 1015.6 |
| 20260906065530 | 72 | 69 | 1.0 | 1.0 | 0.00 | 0.00 | 0.00 | 93 | 1015.8 |
| 20260906065026 | 72 | 254 | 0.0 | 1.0 | 0.00 | 0.00 | 0.00 | 93 | 1015.9 |
| 20260906064522 | 72 | 150 | 0.0 | 0.0 | 0.00 | 0.00 | 0.00 | 93 | 1015.8 |
| 20260906064017 | 72 | 150 | 0.0 | 0.0 | 0.00 | 0.00 | 0.00 | 93 | 1015.8 |
| 20260906063512 | 72 | 138 | 0.0 | 0.0 | 0.00 | 0.00 | 0.00 | 93 | 1015.9 |
| 20260906063008 | 72 | 93 | 0.0 | 0.0 | 0.00 | 0.00 | 0.00 | 93 | 1015.7 |
| 20260906062457 | 72 | 93 | 0.0 | 1.0 | 0.00 | 0.00 | 0.00 | 93 | 1016.0 |
| 20260906061951 | 71 | 245 | 0.0 | 0.0 | 0.00 | 0.00 | 0.00 | 93 | 1015.8 |
| 20260906061448 | 71 | 245 | 0.0 | 0.0 | 0.00 | 0.00 | 0.00 | 93 | 1015.8 |
| 20260906060947 | 71 | 245 | 0.0 | 0.0 | 0.00 | 0.00 | 0.00 | 93 | 1015.7 |
| 20260906060444 | 71 | 245 | 0.0 | 0.0 | 0.00 | 0.00 | 0.00 | 93 | 1015.8 |
| 20260906055940 | 71 | 245 | 0.0 | 0.0 | 0.00 | 0.00 | 0.00 | 93 | 1015.9 |
| 20260906055436 | 72 | 256 | 0.0 | 0.0 | 0.00 | 0.00 | 0.00 | 93 | 1015.9 |
| 20260906054931 | 72 | 256 | 0.0 | 0.0 | 0.00 | 0.00 | 0.00 | 93 | 1015.9 |
| 20260906054426 | 72 | 110 | 0.0 | 0.0 | 0.00 | 0.00 | 0.00 | 93 | 1015.9 |
| 20260906053922 | 72 | 110 | 0.0 | 0.0 | 0.00 | 0.00 | 0.00 | 93 | 1015.8 |
| 20260906053418 | 72 | 343 | 0.0 | 0.0 | 0.00 | 0.00 | 0.00 | 93 | 1015.7 |
| 20260906052913 | 72 | 343 | 0.0 | 0.0 | 0.00 | 0.00 | 0.00 | 93 | 1015.9 |
| 20260906052409 | 72 | 343 | 0.0 | 0.0 | 0.00 | 0.00 | 0.00 | 93 | 1015.9 |
| 20260906051906 | 72 | 343 | 0.0 | 0.0 | 0.00 | 0.00 | 0.00 | 93 | 1015.9 |
| 20260906051406 | 72 | 245 | 0.0 | 0.0 | 0.00 | 0.00 | 0.00 | 93 | 1016.0 |
| 20260906050902 | 72 | 245 | 0.0 | 0.0 | 0.00 | 0.00 | 0.00 | 93 | 1015.8 |
| 20260906050356 | 72 | 245 | 0.0 | 0.0 | 0.00 | 0.00 | 0.00 | 93 | 1016.0 |
| 20260906045856 | 72 | 83 | 0.0 | 0.0 | 0.00 | 0.00 | 0.00 | 93 | 1016.1 |
| 20260906045355 | 72 | 110 | 0.0 | 1.0 | 0.00 | 0.00 | 0.00 | 93 | 1015.9 |
| 20260906044852 | 72 | 267 | 0.0 | 0.0 | 0.00 | 0.00 | 0.00 | 93 | 1016.0 |
| 20260906044351 | 72 | 251 | 0.0 | 0.0 | 0.00 | 0.00 | 0.00 | 93 | 1015.7 |
| 20260906043847 | 72 | 251 | 0.0 | 0.0 | 0.00 | 0.00 | 0.00 | 93 | 1015.6 |
| 20260906043343 | 72 | 251 | 0.0 | 0.0 | 0.00 | 0.00 | 0.00 | 93 | 1016.1 |
| 20260906042838 | 72 | 83 | 0.0 | 0.0 | 0.00 | 0.00 | 0.00 | 93 | 1016.0 |
| 20260906042337 | 72 | 138 | 0.0 | 0.0 | 0.00 | 0.00 | 0.00 | 93 | 1016.1 |
| 20260906041833 | 72 | 138 | 0.0 | 0.0 | 0.00 | 0.00 | 0.00 | 93 | 1016.3 |
| 20260906041328 | 72 | 161 | 0.0 | 0.0 | 0.00 | 0.00 | 0.00 | 93 | 1016.4 |
| 20260906040828 | 72 | 314 | 0.0 | 0.0 | 0.00 | 0.00 | 0.00 | 92 | 1016.3 |
| 20260906040323 | 72 | 266 | 0.0 | 0.0 | 0.00 | 0.00 | 0.00 | 92 | 1016.3 |
| 20260906035819 | 72 | 168 | 0.0 | 0.0 | 0.00 | 0.62 | 0.62 | 92 | 1016.4 |
| 20260906035314 | 72 | 94 | 0.0 | 0.0 | 0.00 | 0.62 | 0.62 | 92 | 1016.3 |
| 20260906034809 | 72 | 185 | 0.0 | 0.0 | 0.00 | 0.62 | 0.62 | 92 | 1016.1 |
| 20260906034303 | 72 | 185 | 0.0 | 0.0 | 0.00 | 0.62 | 0.62 | 92 | 1016.2 |
| 20260906033759 | 72 | 185 | 0.0 | 0.0 | 0.00 | 0.62 | 0.62 | 92 | 1016.3 |
| 20260906033258 | 72 | 145 | 0.0 | 0.0 | 0.00 | 0.62 | 0.62 | 92 | 1016.2 |
| 20260906032755 | 72 | 238 | 0.0 | 0.0 | 0.00 | 0.62 | 0.62 | 92 | 1016.3 |
| 20260906032255 | 72 | 238 | 0.0 | 0.0 | 0.00 | 0.62 | 0.62 | 92 | 1016.3 |
| 20260906031750 | 72 | 238 | 0.0 | 0.0 | 0.00 | 0.62 | 0.62 | 91 | 1016.5 |
| 20260906031247 | 72 | 238 | 0.0 | 0.0 | 0.00 | 0.62 | 0.62 | 91 | 1016.3 |
| 20260906030746 | 72 | 251 | 0.0 | 0.0 | 0.00 | 0.62 | 0.62 | 91 | 1016.2 |
| 20260906030241 | 72 | 251 | 0.0 | 0.0 | 0.00 | 0.62 | 0.62 | 91 | 1016.0 |
| 20260906025740 | 73 | 251 | 0.0 | 0.0 | 0.00 | 0.62 | 0.62 | 91 | 1016.3 |
| 20260906025235 | 73 | 251 | 0.0 | 0.0 | 0.00 | 0.62 | 0.62 | 90 | 1016.2 |
| 20260906024734 | 73 | 216 | 0.0 | 0.0 | 0.00 | 0.62 | 0.62 | 89 | 1016.3 |
| 20260906024233 | 73 | 178 | 0.0 | 0.0 | 0.00 | 0.62 | 0.62 | 89 | 1016.0 |
| 20260906023729 | 73 | 325 | 0.0 | 0.0 | 0.00 | 0.62 | 0.62 | 89 | 1016.2 |
| 20260906023225 | 73 | 185 | 0.0 | 0.0 | 0.00 | 0.62 | 0.62 | 89 | 1016.1 |
| 20260906022720 | 73 | 103 | 0.0 | 2.0 | 0.00 | 0.62 | 0.62 | 89 | 1016.0 |
| 20260906022215 | 73 | 248 | 0.0 | 0.0 | 0.00 | 0.62 | 0.62 | 89 | 1016.2 |
| 20260906021711 | 73 | 110 | 0.0 | 1.0 | 0.00 | 0.62 | 0.62 | 90 | 1016.0 |
| 20260906021209 | 73 | 110 | 0.0 | 2.0 | 0.00 | 0.62 | 0.62 | 90 | 1015.9 |
| 20260906020705 | 72 | 58 | 0.0 | 0.0 | 0.00 | 0.62 | 0.62 | 90 | 1016.1 |
| 20260906020159 | 72 | 26 | 0.0 | 0.0 | 0.00 | 0.62 | 0.62 | 91 | 1016.0 |
| 20260906015654 | 72 | 145 | 0.0 | 0.0 | 0.00 | 0.62 | 0.62 | 90 | 1015.8 |
| 20260906015152 | 72 | 145 | 0.0 | 0.0 | 0.00 | 0.62 | 0.62 | 90 | 1015.7 |
| 20260906014652 | 72 | 145 | 0.0 | 0.0 | 0.00 | 0.62 | 0.62 | 90 | 1015.6 |
| 20260906014148 | 72 | 304 | 0.0 | 0.0 | 0.00 | 0.62 | 0.62 | 90 | 1015.7 |
| 20260906013644 | 72 | 304 | 0.0 | 0.0 | 0.00 | 0.62 | 0.62 | 89 | 1015.7 |
| 20260906013139 | 72 | 245 | 0.0 | 0.0 | 0.00 | 0.62 | 0.62 | 90 | 1015.5 |
| 20260906012639 | 73 | 110 | 0.0 | 0.0 | 0.00 | 0.62 | 0.62 | 89 | 1015.6 |
| 20260906012139 | 73 | 110 | 0.0 | 1.0 | 0.00 | 0.62 | 0.62 | 89 | 1015.3 |
| 20260906011635 | 73 | 145 | 0.0 | 0.0 | 0.00 | 0.62 | 0.62 | 89 | 1015.5 |
| 20260906011130 | 73 | 145 | 0.0 | 0.0 | 0.00 | 0.62 | 0.62 | 89 | 1015.6 |
| 20260906010626 | 73 | 142 | 0.0 | 1.0 | 0.00 | 0.62 | 0.62 | 89 | 1015.4 |
| 20260906010122 | 73 | 196 | 0.0 | 0.0 | 0.00 | 0.62 | 0.62 | 89 | 1015.7 |
| 20260906005621 | 73 | 226 | 0.0 | 0.0 | 0.00 | 0.62 | 0.62 | 89 | 1015.3 |
| 20260906005120 | 73 | 298 | 2.0 | 2.0 | 0.00 | 0.62 | 0.62 | 89 | 1015.4 |
| 20260906004620 | 74 | 138 | 0.0 | 1.0 | 0.00 | 0.62 | 0.62 | 88 | 1015.7 |
| 20260906004114 | 74 | 156 | 1.0 | 1.0 | 0.00 | 0.62 | 0.62 | 88 | 1015.1 |
| 20260906003610 | 74 | 354 | 0.0 | 2.0 | 0.00 | 0.62 | 0.62 | 88 | 1015.2 |
| 20260906003106 | 74 | 83 | 0.0 | 1.0 | 0.00 | 0.62 | 0.62 | 88 | 1014.9 |
| 20260906002606 | 74 | 150 | 0.0 | 1.0 | 0.00 | 0.62 | 0.62 | 87 | 1014.9 |
| 20260906002101 | 74 | 251 | 0.0 | 0.0 | 0.00 | 0.62 | 0.62 | 87 | 1015.1 |
| 20260906001556 | 74 | 267 | 0.0 | 0.0 | 0.00 | 0.62 | 0.62 | 86 | 1014.9 |
| 20260906001050 | 74 | 346 | 0.0 | 0.0 | 0.00 | 0.62 | 0.62 | 86 | 1015.1 |
| 20260906000547 | 74 | 0 | 0.0 | 0.0 | 0.00 | 0.62 | 0.62 | 88 | 1014.6 |
| 20260906000041 | 75 | 0 | 0.0 | 0.0 | 0.00 | 0.62 | 0.62 | 88 | 1014.7 |
| 20260905235535 | 75 | 311 | 0.0 | 0.0 | 0.00 | 0.62 | 0.62 | 88 | 1014.7 |
| 20260905235030 | 75 | 318 | 0.0 | 0.0 | 0.00 | 0.62 | 0.62 | 89 | 1014.9 |
| 20260905234526 | 75 | 36 | 0.0 | 0.0 | 0.00 | 0.62 | 0.62 | 89 | 1014.8 |
| 20260905234026 | 75 | 238 | 0.0 | 0.0 | 0.00 | 0.62 | 0.62 | 88 | 1014.9 |
| 20260905233521 | 74 | 354 | 0.0 | 0.0 | 0.00 | 0.62 | 0.62 | 89 | 1014.8 |
| 20260905233021 | 74 | 354 | 0.0 | 0.0 | 0.00 | 0.62 | 0.62 | 89 | 1014.9 |
| 20260905232516 | 74 | 238 | 0.0 | 0.0 | 0.00 | 0.62 | 0.62 | 90 | 1014.7 |
| 20260905232012 | 74 | 194 | 0.0 | 0.0 | 0.00 | 0.62 | 0.62 | 89 | 1014.7 |